Погода в Нозовке

Погода в Нозовке : погода сейчас, прогноз погоды и архив. Всё, что Вы хотите узнать о погоде в Нозовке!

Поиск расширенной информации на нашем сайте:

Полезная информация: Алфавитный перечень дезсредств.

Другие новости

Новости СМИ2

Главная страница сайта

Новости сайта

02.10.2013

Напоминаем, что на нашем новом сайте вы можете получить высокодетализированные прогнозы погоды по пунктам России, СНГ и мира (включающие важные для авиации метеовеличины, такие как направление и скорость ветра, видимость, явления погоды, количество и форма облачности, нижняя и верхняя граница облачности), а также ознакомиться с разнообразными материалами по авиационной метеорологии и подборкой полезных ссылок на эту тему.

Сайт Метеоцентр.Азия посвящён разработке технологий оптимизации авиаметеорологического обслуживания, включая проектирование и перспективное создание нескольких автоматизированных авиаметеорологических систем:
- система выпуска высокодетальных прогностических карт явлений погоды для нижнего воздушного пространства по России и ближнему зарубежью;
- система верификации прогнозов TAF (выпускаемых синоптиками официальных АМСГ РФ и ближнего зарубежья) и AUTOTAF (выпускаемых сайтом Метеоцентр.Азия) - выявление ошибок, онлайн-сопоставление с фактической погодой METAR, автоматическое внесение коррективов в прогнозы при резком отклонении фактической погоды от прогноза, подсчёт оправдываемости прогнозов по элементам и в целом;
- система обработки, анализа и отображения авиаметеорологической информации для применения провайдерами метеорологической информации.

Рекомендуем: Купить clean point можно выгодно!

Погода в Нозовке - сегодня

Время (UTC), дата Ветер
(°,м/с) 
Видим.   Явления Облачность Т
(°С)
Тd
(°С)
f(%) Тe
(°С)
Pmin
(гПа)
dP
(гПа)
Po
(мм)
O2
(г/м3)
Тmin Tmax R s Состояние
почвы
18 22.05.17 030 (СВ) 20000 м    3/3 600 м 
[Sc]
+2.7 -5.4 55 +3  1006.7  0.3  743  297           
21 22.05.17 040 (СВ) 20000 м    ясно 
+4.1 -4.4 54 +3  1007.5  0.9  744  296           
00 23.05.17 030 (СВ) 20000 м    1/1 2000 м средняя 
[Ac und]
+2.2 -3.9 64 +1  1008.1  0.5  744  298           
03 23.05.17 040 (СВ) 20000 м    8/0 верхняя 
[Ci fib]
+6.1 -2.7 53 +5  1007.9  744  293  +1.3        сухая 
06 23.05.17 350 (С) 20000 м    8/8 600 м 
[Sc]
+8.3 -4.4 40 +8  1008.3  0.5  744  292           
09 23.05.17 360 (С) 20000 м    9/9 600 м 
[Sc]
+8.6 -3.8 41 +8  1008.5  0.2  744  291           
12 23.05.17 290 (З) 20000 м    9/9 600 м 
[Sc]
+8.9 -4.3 39 +9  1008.8  0.3  745  291           
15 23.05.17 300 (СЗ) 20000 м    9/9 600 м 
[Sc]
+7.3 -4 44 +7  1009.8  0.9  745  293    +9.6       
18 23.05.17 260 (З) 20000 м    4/4 600 м 
[Sc]
+4 -3.5 58 +5  1010.5  0.6  746  297           
21 23.05.17 230 (ЮЗ) 20000 м    3/3 600 м 
[Sc]
+0.6 -1.9 83 +1  1010.7  0.1  746  300           
00 24.05.17 250 (З) 20000 м    4/4 2000 м средняя 
[Ac und]
+2 -1.4 78 +1  1011.2  0.6  746  299           
03 24.05.17 230 (ЮЗ) 20000 м    8/8 2000 м средняя 
[Ac und]
+6.4 -1.4 57 +5  1010.8  0.1  746  294  -0.2        сухая 
06 24.05.17 240 (ЮЗ) 6{10}  20000 м    6/3 600 м средняя 
[Sc|Ac und]
+12 -1.1 40 +11  1009.7  -0.8  746  288           
09 24.05.17 230 (ЮЗ) 7-10{11}  20000 м    6/3 600 м средняя 
[Cu med, cong|Ac und]
+16 -1.9 29 +15  1008.1  -0.8  745  284           
12 24.05.17 240 (ЮЗ) 5{12}  20000 м    8/6 600 м средняя 
[Cu med, cong|Ac und]
+16.3 +0.1 33 +16  1007.9  -0.2  744  283           
15 24.05.17 260 (З) 5{11}  20000 м    8/5 600 м средняя 
[Cu med, cong|Ac und]
+17 -1.2 29 +17  1008.5  0.6  745  283    +17.9       
18 24.05.17 330 (СЗ) 1{11}  20000 м    3/3 2000 м средняя 
[Ac und]
+12.4 -1.6 38 +14  1011.4  2.6  747  288           
21 24.05.17 050 (СВ) 20000 м    4/4 2000 м средняя 
[Ac und]
+9.7 -2.8 41 +9  1014.3  2.7  749  292           
00 25.05.17 050 (СВ) 20000 м    3/3 2000 м средняя 
[Ac und]
+4.8 -3.9 53 +4  1016.9  2.3  751  298           
03 25.05.17 070 (В) 20000 м    ясно 
+7.7 -3.6 45 +7  1018.5  2.3  752  295  +4.7        сухая 
06 25.05.17 130 (ЮВ) 20000 м    ясно 
+11 -5.3 31 +11  1019.1  0.8  752  292           
09 25.05.17 090 (В) 20000 м    1/0 верхняя 
[Ci fib]
+13.7 -5 27 +14  1018.8  -0.2  752  289           
12 25.05.17 210 (ЮЗ) 20000 м    1/0 верхняя 
[Ci fib]
+17 -4.1 23 +17  1017.5  -0.2  752  285           
15 25.05.17 090 (В) 20000 м    ясно 
+15.7 -3.1 27 +16  1016.5  -1.1  751  286    +17.5       
18 25.05.17 080 (В) 20000 м    3/3 600 м 
[Sc]
+11.1 -1.5 41 +11  1016.4  -0.4  750  291           
Время (UTC), дата Ветер
(°,м/с) 
Видим.   Явления Облачность Т
(°С)
Тd
(°С)
f(%) Тe
(°С)
Pmin
(гПа)
dP
(гПа)
Po
(мм)
O2
(г/м3)
Тmin Tmax R s Состояние
почвы

Для получения пояснительной информации подведите курсор к названию столбца.

ПОГОДА в Нозовке - архив

Всё, что Вы хотите узнать о погоде в Нозовке - удобно и подробно!

Выберите нужную дату (начиная с 1 января 2015* года) и нажмите кнопку "Найти".
Будут отображены архивные сводки погоды по пункту Нозовка, начиная с указанной даты.


Отображать данные в формате CSV (для использования в таблицах Excel)


Внимание! Наш архив погоды предназначен исключительно для личного некоммерческого использования в познавательных целях. Если Вам необходимы официальные справки о состоянии погоды (для производственных, юридических, коммерческих и т.п. целей), обращайтесь в органы Росгидромета.

*Примечание: данная дата относится к архиву по метеостанциям СССР (Россия, СНГ, Балтия).
Архив по метеостанциям Зарубежной Европы и Азии (кроме Китая) хранится 10 дней, по другим регионам земного шара (Китай, Африка, Америка, Австралия, Океания) - 1 день.

Нозовка - район местоположения метеостанции


Название, широта, долгота, высота метеостанции:
Нозовка 57.1°ш. 54.8°д. 131 м над ур. моря [Российская Федерация]

Дополнительная информация

В oтличие oт бoльшинства пoгoдных сайтoв мы публикуем пoдрoбную метеoинфoрмацию в детальнoм прoфессиoнальнoм фoрмате.

Характеристики температуры и влажнoсти вoздуха измеряются на высoте 2 м в тени вдали oт зданий и деревьев.
Скoрoсть ветра измеряется на высoте 10 м (на урoвне рoста челoвека скoрoсть ветра ниже в 1.5-2 раза). Если метеoстанция нахoдится в гoрoде или в лесу, тo скoрoсть ветра занижена на 2-4 м/с пo сравнению с oткрытым местoм. Скoрoсть ветра над акватoриями крупных рек и oзёр, а также на вершинах хoлмoв на 2-5 м/с выше, чем в oбычных услoвиях.
Атмoсфернoе давление в разных тoчках местнoсти мoжет значительнo oтличаться oт давления на метеoстанции, в зависимoсти oт услoвий рельефа (при пoдъёме на 10 м давление пoнижается примернo на 1 мм рт.ст.).